Location: Umburanas
(4.5000°S, 37.9667°W)
Time: 23:40:51
(UTC+00:00)

Sich 1 - Pass Details

Date: 19 November 2019
Orbit: 595 x 625 km, 82.5° (Epoch: 07 December)

Event Time Altitude Azimuth Distance (km) Brightness Sun altitude
Rises 20:47:35 0° 345° (NNW) 2,876 6.4 -5.6°
Reaches altitude 10° 20:49:52 10° 339° (NNW) 1,978 5.7 -6.1°
Maximum altitude 20:54:03 45° 266° (W) 849 4.4 -7.1°
Drops below altitude 10° 20:58:18 10° 193° (SSW) 1,999 6.2 -8.1°
Sets 21:00:37 0° 186° (S) 2,910 6.9 -8.6°
